| time (UTC) | temp F | wind direction | speed MPH | gust MPH | rain 1hr in | rain 24hr in | rain mn in | humidity % | barometer mb |
| 20260509105031 | 59 | 189 | 5.0 | 17.0 | 0.00 | 0.00 | 0.00 | 34 | 1025.8 |
| 20260509104546 | 58 | 169 | 7.0 | 19.0 | 0.00 | 0.00 | 0.00 | 27 | 1025.8 |
| 20260509104031 | 59 | 270 | 9.0 | 19.0 | 0.00 | 0.00 | 0.00 | 28 | 1026.0 |
| 20260509103530 | 59 | 180 | 9.0 | 16.0 | 0.00 | 0.00 | 0.00 | 28 | 1025.9 |
| 20260509103048 | 59 | 193 | 8.0 | 17.0 | 0.00 | 0.00 | 0.00 | 29 | 1025.8 |
| 20260509102532 | 58 | 212 | 7.0 | 17.0 | 0.00 | 0.00 | 0.00 | 30 | 1025.9 |
| 20260509102031 | 59 | 243 | 10.0 | 21.0 | 0.00 | 0.00 | 0.00 | 31 | 1026.0 |
| 20260509101611 | 59 | 160 | 10.0 | 21.0 | 0.00 | 0.00 | 0.00 | 29 | 1025.9 |
| 20260509101034 | 59 | 180 | 11.0 | 25.0 | 0.00 | 0.00 | 0.00 | 30 | 1026.0 |
| 20260509100538 | 59 | 191 | 6.0 | 28.0 | 0.00 | 0.00 | 0.00 | 33 | 1026.0 |
| 20260509100043 | 58 | 232 | 11.0 | 28.0 | 0.00 | 0.00 | 0.00 | 33 | 1026.1 |
| 20260509095531 | 59 | 251 | 10.0 | 18.0 | 0.00 | 0.00 | 0.00 | 31 | 1026.1 |
| 20260509095034 | 58 | 238 | 11.0 | 18.0 | 0.00 | 0.00 | 0.00 | 30 | 1026.2 |
| 20260509094544 | 58 | 247 | 6.0 | 12.0 | 0.00 | 0.00 | 0.00 | 30 | 1026.2 |
| 20260509094034 | 57 | 238 | 6.0 | 17.0 | 0.00 | 0.00 | 0.00 | 38 | 1026.3 |
| 20260509093532 | 57 | 194 | 8.0 | 17.0 | 0.00 | 0.00 | 0.00 | 33 | 1026.4 |
| 20260509093042 | 58 | 207 | 9.0 | 16.0 | 0.00 | 0.00 | 0.00 | 35 | 1026.4 |
| 20260509092534 | 58 | 254 | 9.0 | 14.0 | 0.00 | 0.00 | 0.00 | 30 | 1026.6 |
| 20260509092036 | 58 | 264 | 7.0 | 15.0 | 0.00 | 0.00 | 0.00 | 32 | 1026.4 |
| 20260509091548 | 57 | 195 | 7.0 | 23.0 | 0.00 | 0.00 | 0.00 | 31 | 1026.6 |
| 20260509091035 | 57 | 225 | 11.0 | 23.0 | 0.00 | 0.00 | 0.00 | 31 | 1026.6 |
| 20260509090535 | 57 | 177 | 6.0 | 16.0 | 0.00 | 0.00 | 0.00 | 34 | 1026.5 |
| 20260509090042 | 57 | 210 | 10.0 | 16.0 | 0.00 | 0.00 | 0.00 | 33 | 1026.6 |
| 20260509085534 | 57 | 215 | 5.0 | 14.0 | 0.00 | 0.00 | 0.00 | 34 | 1026.6 |
| 20260509085034 | 57 | 215 | 8.0 | 13.0 | 0.00 | 0.00 | 0.00 | 30 | 1026.6 |
| 20260509084548 | 57 | 241 | 7.0 | 15.0 | 0.00 | 0.00 | 0.00 | 31 | 1026.6 |
| 20260509084036 | 56 | 238 | 8.0 | 18.0 | 0.00 | 0.00 | 0.00 | 33 | 1026.6 |
| 20260509083534 | 56 | 237 | 10.0 | 18.0 | 0.00 | 0.00 | 0.00 | 33 | 1026.6 |
| 20260509083040 | 56 | 241 | 8.0 | 15.0 | 0.00 | 0.00 | 0.00 | 31 | 1026.6 |
| 20260509082535 | 56 | 268 | 8.0 | 14.0 | 0.00 | 0.00 | 0.00 | 32 | 1026.7 |
| 20260509082035 | 56 | 248 | 9.0 | 15.0 | 0.00 | 0.00 | 0.00 | 40 | 1026.6 |
| 20260509081544 | 56 | 197 | 8.0 | 15.0 | 0.00 | 0.00 | 0.00 | 36 | 1026.6 |
| 20260509081035 | 56 | 213 | 6.0 | 12.0 | 0.00 | 0.00 | 0.00 | 31 | 1026.7 |
| 20260509080535 | 56 | 251 | 6.0 | 14.0 | 0.00 | 0.00 | 0.00 | 35 | 1026.7 |
| 20260509080041 | 56 | 216 | 5.0 | 14.0 | 0.00 | 0.00 | 0.00 | 30 | 1026.7 |
| 20260509075534 | 56 | 244 | 7.0 | 14.0 | 0.00 | 0.00 | 0.00 | 30 | 1026.7 |
| 20260509075035 | 55 | 198 | 8.0 | 13.0 | 0.00 | 0.00 | 0.00 | 36 | 1026.7 |
| 20260509074549 | 56 | 229 | 5.0 | 11.0 | 0.00 | 0.00 | 0.00 | 33 | 1026.7 |
| 20260509074034 | 55 | 270 | 6.0 | 12.0 | 0.00 | 0.00 | 0.00 | 33 | 1026.8 |
| 20260509073535 | 55 | 227 | 7.0 | 13.0 | 0.00 | 0.00 | 0.00 | 36 | 1026.7 |
| 20260509073056 | 55 | 220 | 8.0 | 15.0 | 0.00 | 0.00 | 0.00 | 39 | 1026.7 |
| 20260509072535 | 55 | 218 | 9.0 | 15.0 | 0.00 | 0.00 | 0.00 | 37 | 1026.8 |
| 20260509072032 | 55 | 238 | 5.0 | 12.0 | 0.00 | 0.00 | 0.00 | 37 | 1026.8 |
| 20260509071550 | 55 | 220 | 6.0 | 12.0 | 0.00 | 0.00 | 0.00 | 35 | 1026.8 |
| 20260509071033 | 54 | 188 | 7.0 | 12.0 | 0.00 | 0.00 | 0.00 | 40 | 1026.8 |
| 20260509070532 | 54 | 189 | 9.0 | 12.0 | 0.00 | 0.00 | 0.00 | 38 | 1026.9 |
| 20260509070046 | 54 | 252 | 6.0 | 12.0 | 0.00 | 0.00 | 0.00 | 38 | 1026.9 |
| 20260509065532 | 54 | 226 | 6.0 | 15.0 | 0.00 | 0.00 | 0.00 | 39 | 1026.9 |
| 20260509065034 | 54 | 155 | 6.0 | 15.0 | 0.00 | 0.00 | 0.00 | 44 | 1026.9 |
| 20260509064546 | 53 | 228 | 8.0 | 12.0 | 0.00 | 0.00 | 0.00 | 43 | 1026.9 |
| 20260509064037 | 53 | 228 | 5.0 | 9.0 | 0.00 | 0.00 | 0.00 | 44 | 1027.0 |
| 20260509063533 | 52 | 215 | 5.0 | 8.0 | 0.00 | 0.00 | 0.00 | 45 | 1026.9 |
| 20260509063043 | 52 | 218 | 5.0 | 8.0 | 0.00 | 0.00 | 0.00 | 43 | 1027.0 |
| 20260509062533 | 52 | 150 | 4.0 | 8.0 | 0.00 | 0.00 | 0.00 | 41 | 1027.0 |
| 20260509062033 | 52 | 195 | 2.0 | 7.0 | 0.00 | 0.00 | 0.00 | 45 | 1027.0 |
| 20260509061547 | 51 | 203 | 4.0 | 9.0 | 0.00 | 0.00 | 0.00 | 46 | 1027.1 |
| 20260509061036 | 51 | 218 | 5.0 | 9.0 | 0.00 | 0.00 | 0.00 | 49 | 1027.0 |
| 20260509060534 | 51 | 194 | 5.0 | 8.0 | 0.00 | 0.00 | 0.00 | 43 | 1027.2 |
| 20260509060044 | 50 | 197 | 5.0 | 8.0 | 0.00 | 0.00 | 0.00 | 45 | 1027.1 |
| 20260509055535 | 50 | 202 | 6.0 | 8.0 | 0.00 | 0.00 | 0.00 | 42 | 1027.0 |
| 20260509055034 | 49 | 222 | 5.0 | 8.0 | 0.00 | 0.00 | 0.00 | 47 | 1026.9 |
| 20260509054553 | 49 | 218 | 3.0 | 7.0 | 0.00 | 0.00 | 0.00 | 46 | 1027.0 |
| 20260509054038 | 49 | 216 | 3.0 | 8.0 | 0.00 | 0.00 | 0.00 | 46 | 1026.9 |
| 20260509053535 | 48 | 173 | 4.0 | 8.0 | 0.00 | 0.00 | 0.00 | 52 | 1027.0 |
| 20260509053043 | 48 | 189 | 4.0 | 7.0 | 0.00 | 0.00 | 0.00 | 46 | 1027.1 |
| 20260509052535 | 48 | 209 | 3.0 | 7.0 | 0.00 | 0.00 | 0.00 | 46 | 1027.0 |
| 20260509052033 | 47 | 197 | 4.0 | 7.0 | 0.00 | 0.00 | 0.00 | 48 | 1027.1 |
| 20260509051541 | 47 | 0 | 0.0 | 4.0 | 0.00 | 0.00 | 0.00 | 56 | 1027.2 |
| 20260509051034 | 46 | 0 | 0.0 | 0.0 | 0.00 | 0.00 | 0.00 | 57 | 1027.2 |
| 20260509050536 | 45 | 0 | 0.0 | 2.0 | 0.00 | 0.00 | 0.00 | 59 | 1027.2 |
| 20260509050040 | 43 | 0 | 0.0 | 2.0 | 0.00 | 0.00 | 0.00 | 67 | 1027.2 |
| 20260509045537 | 40 | 0 | 0.0 | 2.0 | 0.00 | 0.00 | 0.00 | 74 | 1027.2 |
| 20260509045034 | 39 | 180 | 0.0 | 4.0 | 0.00 | 0.00 | 0.00 | 76 | 1027.2 |
| 20260509044544 | 38 | 179 | 0.0 | 4.0 | 0.00 | 0.00 | 0.00 | 77 | 1027.2 |
| 20260509044033 | 38 | 0 | 0.0 | 0.0 | 0.00 | 0.00 | 0.00 | 76 | 1027.2 |
| 20260509043530 | 37 | 0 | 0.0 | 0.0 | 0.00 | 0.00 | 0.00 | 78 | 1027.2 |
| 20260509043042 | 37 | 0 | 0.0 | 2.0 | 0.00 | 0.00 | 0.00 | 79 | 1027.4 |
| 20260509042531 | 36 | 0 | 0.0 | 2.0 | 0.00 | 0.00 | 0.00 | 80 | 1027.4 |
| 20260509042033 | 35 | 97 | 0.0 | 2.0 | 0.00 | 0.00 | 0.00 | 81 | 1027.3 |
| 20260509041607 | 34 | 0 | 0.0 | 2.0 | 0.00 | 0.00 | 0.00 | 79 | 1027.4 |
| 20260509041101 | 33 | 97 | 0.0 | 2.0 | 0.00 | 0.00 | 0.00 | 78 | 1027.3 |
| 20260509040532 | 32 | 0 | 0.0 | 1.0 | 0.00 | 0.00 | 0.00 | 79 | 1027.3 |
| 20260509040045 | 31 | 0 | 0.0 | 2.0 | 0.00 | 0.00 | 0.00 | 77 | 1027.2 |
| 20260509035533 | 31 | 0 | 0.0 | 2.0 | 0.00 | 0.00 | 0.00 | 80 | 1027.2 |
| 20260509035033 | 30 | 97 | 0.0 | 2.0 | 0.00 | 0.00 | 0.00 | 80 | 1027.2 |
| 20260509034539 | 29 | 97 | 1.0 | 2.0 | 0.00 | 0.00 | 0.00 | 80 | 1027.1 |
| 20260509034037 | 29 | 97 | 1.0 | 2.0 | 0.00 | 0.00 | 0.00 | 81 | 1027.3 |
| 20260509033533 | 29 | 97 | 1.0 | 2.0 | 0.00 | 0.00 | 0.00 | 81 | 1027.3 |
| 20260509033044 | 28 | 0 | 0.0 | 1.0 | 0.00 | 0.00 | 0.00 | 81 | 1027.3 |
| 20260509032531 | 28 | 0 | 0.0 | 0.0 | 0.00 | 0.00 | 0.00 | 81 | 1027.3 |
| 20260509032032 | 28 | 0 | 0.0 | 0.0 | 0.00 | 0.00 | 0.00 | 81 | 1027.2 |
| 20260509031544 | 28 | 0 | 0.0 | 0.0 | 0.00 | 0.00 | 0.00 | 81 | 1027.4 |
| 20260509031034 | 28 | 0 | 0.0 | 0.0 | 0.00 | 0.00 | 0.00 | 81 | 1027.4 |
| 20260509030532 | 28 | 0 | 0.0 | 0.0 | 0.00 | 0.00 | 0.00 | 80 | 1027.4 |
| 20260509030044 | 28 | 0 | 0.0 | 0.0 | 0.00 | 0.00 | 0.00 | 81 | 1027.4 |
| 20260509025532 | 28 | 0 | 0.0 | 0.0 | 0.00 | 0.00 | 0.00 | 81 | 1027.4 |
| 20260509025032 | 28 | 0 | 0.0 | 0.0 | 0.00 | 0.00 | 0.00 | 82 | 1027.3 |
| 20260509024545 | 27 | 0 | 0.0 | 1.0 | 0.00 | 0.00 | 0.00 | 83 | 1027.4 |
| 20260509024032 | 27 | 0 | 0.0 | 2.0 | 0.00 | 0.00 | 0.00 | 83 | 1027.4 |
| 20260509023535 | 27 | 0 | 0.0 | 2.0 | 0.00 | 0.00 | 0.00 | 82 | 1027.4 |
| 20260509023104 | 27 | 97 | 0.0 | 1.0 | 0.00 | 0.00 | 0.00 | 81 | 1027.4 |
| 20260509022533 | 27 | 0 | 0.0 | 0.0 | 0.00 | 0.00 | 0.00 | 81 | 1027.4 |
| 20260509022033 | 27 | 0 | 0.0 | 0.0 | 0.00 | 0.00 | 0.00 | 81 | 1027.3 |
| 20260509021543 | 27 | 0 | 0.0 | 2.0 | 0.00 | 0.00 | 0.00 | 81 | 1027.3 |
| 20260509021035 | 27 | 0 | 0.0 | 2.0 | 0.00 | 0.00 | 0.00 | 81 | 1027.3 |
| 20260509020532 | 27 | 0 | 0.0 | 2.0 | 0.00 | 0.00 | 0.00 | 81 | 1027.3 |
| 20260509020050 | 27 | 97 | 1.0 | 2.0 | 0.00 | 0.00 | 0.00 | 81 | 1027.2 |
| 20260509015535 | 27 | 82 | 1.0 | 2.0 | 0.00 | 0.00 | 0.00 | 81 | 1027.3 |
| 20260509015033 | 27 | 0 | 0.0 | 1.0 | 0.00 | 0.00 | 0.00 | 81 | 1027.3 |
| 20260509014547 | 26 | 0 | 0.0 | 1.0 | 0.00 | 0.00 | 0.00 | 81 | 1027.3 |
| 20260509014032 | 26 | 0 | 0.0 | 1.0 | 0.00 | 0.00 | 0.00 | 81 | 1027.3 |
| 20260509013533 | 26 | 0 | 0.0 | 1.0 | 0.00 | 0.00 | 0.00 | 81 | 1027.5 |
| 20260509013054 | 26 | 0 | 0.0 | 1.0 | 0.00 | 0.00 | 0.00 | 81 | 1027.3 |
| 20260509012535 | 26 | 0 | 0.0 | 1.0 | 0.00 | 0.00 | 0.00 | 81 | 1027.3 |
| 20260509012034 | 26 | 0 | 0.0 | 0.0 | 0.00 | 0.00 | 0.00 | 80 | 1027.4 |
| 20260509011545 | 26 | 0 | 0.0 | 1.0 | 0.00 | 0.00 | 0.00 | 80 | 1027.4 |
| 20260509011033 | 26 | 0 | 0.0 | 2.0 | 0.00 | 0.00 | 0.00 | 80 | 1027.2 |
| 20260509010535 | 26 | 0 | 0.0 | 2.0 | 0.00 | 0.00 | 0.00 | 80 | 1027.3 |
| 20260509010043 | 26 | 77 | 1.0 | 2.0 | 0.00 | 0.00 | 0.00 | 80 | 1027.3 |
| 20260509005531 | 26 | 77 | 1.0 | 2.0 | 0.00 | 0.00 | 0.00 | 80 | 1027.3 |
| 20260509005030 | 26 | 0 | 0.0 | 0.0 | 0.00 | 0.00 | 0.00 | 79 | 1027.3 |
| 20260509004542 | 26 | 0 | 0.0 | 0.0 | 0.00 | 0.00 | 0.00 | 79 | 1027.3 |
| 20260509004034 | 27 | 0 | 0.0 | 0.0 | 0.00 | 0.00 | 0.00 | 79 | 1027.4 |
| 20260509003531 | 27 | 0 | 0.0 | 0.0 | 0.00 | 0.00 | 0.00 | 79 | 1027.4 |
| 20260509003039 | 27 | 0 | 0.0 | 0.0 | 0.00 | 0.00 | 0.00 | 79 | 1027.3 |
| 20260509002530 | 27 | 0 | 0.0 | 0.0 | 0.00 | 0.00 | 0.00 | 79 | 1027.3 |
| 20260509002030 | 27 | 0 | 0.0 | 0.0 | 0.00 | 0.00 | 0.00 | 78 | 1027.3 |
| 20260509001539 | 27 | 0 | 0.0 | 1.0 | 0.00 | 0.00 | 0.00 | 78 | 1027.3 |
| 20260509001030 | 27 | 0 | 0.0 | 1.0 | 0.00 | 0.00 | 0.00 | 78 | 1027.3 |
| 20260509000530 | 27 | 0 | 0.0 | 1.0 | 0.00 | 0.00 | 0.00 | 78 | 1027.3 |
| 20260509000038 | 27 | 0 | 0.0 | 1.0 | 0.00 | 0.00 | 0.00 | 78 | 1027.2 |
| 20260508235530 | 27 | 0 | 0.0 | 1.0 | 0.00 | 0.00 | 0.00 | 78 | 1027.3 |
| 20260508235030 | 27 | 0 | 0.0 | 1.0 | 0.00 | 0.00 | 0.00 | 78 | 1027.3 |
| 20260508234542 | 27 | 0 | 0.0 | 1.0 | 0.00 | 0.00 | 0.00 | 78 | 1027.4 |
| 20260508234032 | 27 | 0 | 0.0 | 2.0 | 0.00 | 0.00 | 0.00 | 78 | 1027.4 |
| 20260508233532 | 27 | 0 | 0.0 | 2.0 | 0.00 | 0.00 | 0.00 | 78 | 1027.3 |
| 20260508233040 | 28 | 77 | 1.0 | 3.0 | 0.00 | 0.00 | 0.00 | 78 | 1027.3 |
| 20260508232530 | 28 | 77 | 1.0 | 3.0 | 0.00 | 0.00 | 0.00 | 78 | 1027.4 |
| 20260508232030 | 28 | 77 | 2.0 | 4.0 | 0.00 | 0.00 | 0.00 | 78 | 1027.4 |
| 20260508231539 | 28 | 86 | 1.0 | 4.0 | 0.00 | 0.00 | 0.00 | 78 | 1027.4 |
| 20260508231033 | 28 | 78 | 2.0 | 4.0 | 0.00 | 0.00 | 0.00 | 78 | 1027.3 |
| 20260508230530 | 28 | 97 | 1.0 | 4.0 | 0.00 | 0.00 | 0.00 | 77 | 1027.4 |
| 20260508230045 | 28 | 107 | 2.0 | 4.0 | 0.00 | 0.00 | 0.00 | 78 | 1027.4 |
| 20260508225530 | 28 | 101 | 2.0 | 3.0 | 0.00 | 0.00 | 0.00 | 77 | 1027.4 |
| 20260508225030 | 28 | 99 | 1.0 | 3.0 | 0.00 | 0.00 | 0.00 | 77 | 1027.4 |
| 20260508224538 | 28 | 90 | 1.0 | 3.0 | 0.00 | 0.00 | 0.00 | 77 | 1027.4 |
| 20260508224030 | 28 | 101 | 1.0 | 3.0 | 0.00 | 0.00 | 0.00 | 76 | 1027.5 |
| 20260508223532 | 29 | 0 | 0.0 | 0.0 | 0.00 | 0.00 | 0.00 | 76 | 1027.5 |
| 20260508223043 | 29 | 0 | 0.0 | 0.0 | 0.00 | 0.00 | 0.00 | 76 | 1027.5 |
| 20260508222533 | 29 | 0 | 0.0 | 0.0 | 0.00 | 0.00 | 0.00 | 76 | 1027.7 |
| 20260508222030 | 29 | 0 | 0.0 | 0.0 | 0.00 | 0.00 | 0.00 | 76 | 1027.6 |
| 20260508221542 | 29 | 0 | 0.0 | 0.0 | 0.00 | 0.00 | 0.00 | 76 | 1027.5 |
| 20260508221033 | 29 | 0 | 0.0 | 0.0 | 0.00 | 0.00 | 0.00 | 75 | 1027.6 |
| 20260508220531 | 30 | 0 | 0.0 | 0.0 | 0.00 | 0.00 | 0.00 | 75 | 1027.6 |
| 20260508220041 | 30 | 0 | 0.0 | 0.0 | 0.00 | 0.00 | 0.00 | 75 | 1027.6 |
| 20260508215532 | 30 | 0 | 0.0 | 2.0 | 0.00 | 0.00 | 0.00 | 75 | 1027.7 |
| 20260508215032 | 30 | 0 | 0.0 | 3.0 | 0.00 | 0.00 | 0.00 | 74 | 1027.6 |
| 20260508214538 | 30 | 98 | 1.0 | 3.0 | 0.00 | 0.00 | 0.00 | 74 | 1027.6 |
| 20260508214030 | 30 | 90 | 2.0 | 3.0 | 0.00 | 0.00 | 0.00 | 74 | 1027.6 |
| 20260508213531 | 31 | 96 | 1.0 | 3.0 | 0.00 | 0.00 | 0.00 | 73 | 1027.5 |
| 20260508213041 | 31 | 105 | 1.0 | 3.0 | 0.00 | 0.00 | 0.00 | 72 | 1027.5 |
| 20260508212531 | 31 | 105 | 1.0 | 3.0 | 0.00 | 0.00 | 0.00 | 72 | 1027.4 |
| 20260508212032 | 32 | 105 | 0.0 | 3.0 | 0.00 | 0.00 | 0.00 | 71 | 1027.5 |
| 20260508211542 | 32 | 104 | 2.0 | 4.0 | 0.00 | 0.00 | 0.00 | 71 | 1027.4 |
| 20260508211034 | 32 | 89 | 1.0 | 4.0 | 0.00 | 0.00 | 0.00 | 71 | 1027.4 |
| 20260508210532 | 32 | 95 | 2.0 | 4.0 | 0.00 | 0.00 | 0.00 | 71 | 1027.4 |
| 20260508210041 | 32 | 89 | 2.0 | 4.0 | 0.00 | 0.00 | 0.00 | 70 | 1027.4 |
| 20260508205530 | 32 | 99 | 2.0 | 3.0 | 0.00 | 0.00 | 0.00 | 68 | 1027.3 |
| 20260508205029 | 33 | 96 | 2.0 | 3.0 | 0.00 | 0.00 | 0.00 | 67 | 1027.4 |
| 20260508204544 | 33 | 19 | 1.0 | 2.0 | 0.00 | 0.00 | 0.00 | 66 | 1027.2 |
| 20260508204037 | 34 | 19 | 0.0 | 2.0 | 0.00 | 0.00 | 0.00 | 65 | 1027.2 |
| 20260508203529 | 34 | 0 | 0.0 | 2.0 | 0.00 | 0.00 | 0.00 | 65 | 1027.1 |
| 20260508203040 | 34 | 0 | 0.0 | 2.0 | 0.00 | 0.00 | 0.00 | 64 | 1027.2 |
| 20260508202531 | 35 | 19 | 1.0 | 2.0 | 0.00 | 0.00 | 0.00 | 64 | 1027.1 |
| 20260508202031 | 35 | 19 | 1.0 | 2.0 | 0.00 | 0.00 | 0.00 | 63 | 1027.2 |
| 20260508201543 | 36 | 19 | 0.0 | 2.0 | 0.00 | 0.00 | 0.00 | 62 | 1027.1 |
| 20260508201031 | 36 | 19 | 0.0 | 2.0 | 0.00 | 0.00 | 0.00 | 62 | 1027.2 |
| 20260508200531 | 36 | 0 | 0.0 | 0.0 | 0.00 | 0.00 | 0.00 | 61 | 1027.2 |
| 20260508200101 | 37 | 0 | 0.0 | 0.0 | 0.00 | 0.00 | 0.00 | 61 | 1027.2 |
| 20260508195530 | 37 | 0 | 0.0 | 0.0 | 0.00 | 0.00 | 0.00 | 60 | 1027.1 |
| 20260508195031 | 38 | 0 | 0.0 | 0.0 | 0.00 | 0.00 | 0.00 | 59 | 1027.0 |
| 20260508194538 | 38 | 0 | 0.0 | 0.0 | 0.00 | 0.00 | 0.00 | 58 | 1027.0 |
| 20260508194029 | 39 | 0 | 0.0 | 0.0 | 0.00 | 0.00 | 0.00 | 58 | 1026.9 |
| 20260508193532 | 39 | 0 | 0.0 | 0.0 | 0.00 | 0.00 | 0.00 | 57 | 1026.8 |
| 20260508193048 | 40 | 0 | 0.0 | 0.0 | 0.00 | 0.00 | 0.00 | 56 | 1026.8 |
| 20260508192531 | 40 | 0 | 0.0 | 0.0 | 0.00 | 0.00 | 0.00 | 56 | 1026.8 |
| 20260508192029 | 41 | 0 | 0.0 | 0.0 | 0.00 | 0.00 | 0.00 | 55 | 1026.7 |
| 20260508191538 | 42 | 0 | 0.0 | 0.0 | 0.00 | 0.00 | 0.00 | 55 | 1026.7 |
| 20260508191033 | 42 | 0 | 0.0 | 0.0 | 0.00 | 0.00 | 0.00 | 54 | 1026.6 |
| 20260508190529 | 43 | 0 | 0.0 | 0.0 | 0.00 | 0.00 | 0.00 | 53 | 1026.6 |
| 20260508190045 | 43 | 0 | 0.0 | 0.0 | 0.00 | 0.00 | 0.00 | 52 | 1026.6 |
| 20260508185531 | 44 | 0 | 0.0 | 0.0 | 0.00 | 0.00 | 0.00 | 52 | 1026.6 |
| 20260508185033 | 44 | 0 | 0.0 | 0.0 | 0.00 | 0.00 | 0.00 | 52 | 1026.6 |
| 20260508184538 | 43 | 0 | 0.0 | 1.0 | 0.00 | 0.00 | 0.00 | 54 | 1026.6 |
| 20260508184031 | 44 | 0 | 0.0 | 2.0 | 0.00 | 0.00 | 0.00 | 64 | 1026.6 |
| 20260508183530 | 45 | 296 | 0.0 | 2.0 | 0.00 | 0.00 | 0.00 | 50 | 1026.6 |
| 20260508183052 | 45 | 0 | 0.0 | 2.0 | 0.00 | 0.00 | 0.00 | 49 | 1026.6 |
| 20260508182531 | 46 | 0 | 0.0 | 2.0 | 0.00 | 0.00 | 0.00 | 48 | 1026.5 |
| 20260508182031 | 47 | 296 | 0.0 | 5.0 | 0.00 | 0.00 | 0.00 | 47 | 1026.4 |
| 20260508181546 | 47 | 296 | 0.0 | 7.0 | 0.00 | 0.00 | 0.00 | 46 | 1026.5 |
| 20260508181034 | 47 | 282 | 3.0 | 7.0 | 0.00 | 0.00 | 0.00 | 47 | 1026.4 |
| 20260508180532 | 48 | 272 | 3.0 | 7.0 | 0.00 | 0.00 | 0.00 | 45 | 1026.4 |
| 20260508180038 | 48 | 270 | 3.0 | 8.0 | 0.00 | 0.00 | 0.00 | 44 | 1026.3 |
| 20260508175531 | 49 | 268 | 4.0 | 8.0 | 0.00 | 0.00 | 0.00 | 43 | 1026.3 |
| 20260508175031 | 50 | 272 | 4.0 | 8.0 | 0.00 | 0.00 | 0.00 | 42 | 1026.3 |
| 20260508174544 | 50 | 271 | 4.0 | 8.0 | 0.00 | 0.00 | 0.00 | 41 | 1026.3 |
| 20260508174031 | 51 | 263 | 3.0 | 8.0 | 0.00 | 0.00 | 0.00 | 40 | 1026.4 |
| 20260508173531 | 51 | 280 | 4.0 | 8.0 | 0.00 | 0.00 | 0.00 | 38 | 1026.3 |
| 20260508173042 | 51 | 278 | 2.0 | 10.0 | 0.00 | 0.00 | 0.00 | 38 | 1026.2 |
| 20260508172534 | 52 | 295 | 4.0 | 10.0 | 0.00 | 0.00 | 0.00 | 39 | 1026.2 |
| 20260508172031 | 52 | 286 | 5.0 | 10.0 | 0.00 | 0.00 | 0.00 | 37 | 1026.2 |
| 20260508171542 | 53 | 289 | 5.0 | 10.0 | 0.00 | 0.00 | 0.00 | 37 | 1026.2 |
| 20260508171031 | 53 | 282 | 5.0 | 10.0 | 0.00 | 0.00 | 0.00 | 37 | 1026.2 |
| 20260508170531 | 53 | 297 | 6.0 | 10.0 | 0.00 | 0.00 | 0.00 | 36 | 1026.1 |
| 20260508170042 | 53 | 276 | 4.0 | 9.0 | 0.00 | 0.00 | 0.00 | 36 | 1026.2 |
| 20260508165530 | 53 | 280 | 2.0 | 10.0 | 0.00 | 0.00 | 0.00 | 35 | 1026.2 |
| 20260508165031 | 54 | 310 | 5.0 | 10.0 | 0.00 | 0.00 | 0.00 | 34 | 1026.1 |
| 20260508164545 | 54 | 265 | 4.0 | 10.0 | 0.00 | 0.00 | 0.00 | 34 | 1026.1 |
| 20260508164031 | 54 | 269 | 5.0 | 10.0 | 0.00 | 0.00 | 0.00 | 33 | 1026.1 |
| 20260508163531 | 54 | 268 | 6.0 | 10.0 | 0.00 | 0.00 | 0.00 | 34 | 1026.0 |
| 20260508163043 | 54 | 268 | 4.0 | 10.0 | 0.00 | 0.00 | 0.00 | 32 | 1026.1 |
| 20260508162530 | 54 | 260 | 4.0 | 11.0 | 0.00 | 0.00 | 0.00 | 32 | 1026.1 |
| 20260508162032 | 54 | 301 | 6.0 | 11.0 | 0.00 | 0.00 | 0.00 | 32 | 1026.0 |
| 20260508161542 | 55 | 328 | 1.0 | 9.0 | 0.00 | 0.00 | 0.00 | 32 | 1025.9 |
| 20260508161034 | 55 | 319 | 4.0 | 9.0 | 0.00 | 0.00 | 0.00 | 32 | 1026.0 |
| 20260508160533 | 55 | 306 | 3.0 | 10.0 | 0.00 | 0.00 | 0.00 | 31 | 1025.9 |
| 20260508160041 | 55 | 285 | 4.0 | 10.0 | 0.00 | 0.00 | 0.00 | 30 | 1025.9 |
| 20260508155530 | 55 | 288 | 3.0 | 10.0 | 0.00 | 0.00 | 0.00 | 31 | 1025.9 |
| 20260508155029 | 55 | 292 | 4.0 | 9.0 | 0.00 | 0.00 | 0.00 | 29 | 1025.9 |
| 20260508154607 | 55 | 311 | 3.0 | 9.0 | 0.00 | 0.00 | 0.00 | 32 | 1025.9 |
| 20260508154033 | 55 | 285 | 3.0 | 9.0 | 0.00 | 0.00 | 0.00 | 30 | 1026.0 |
| 20260508153530 | 55 | 289 | 4.0 | 11.0 | 0.00 | 0.00 | 0.00 | 29 | 1026.0 |
| 20260508153039 | 55 | 305 | 6.0 | 11.0 | 0.00 | 0.00 | 0.00 | 31 | 1026.0 |
| 20260508152531 | 56 | 293 | 6.0 | 11.0 | 0.00 | 0.00 | 0.00 | 29 | 1026.0 |
| 20260508152029 | 56 | 254 | 4.0 | 10.0 | 0.00 | 0.00 | 0.00 | 29 | 1026.0 |
| 20260508151543 | 56 | 277 | 4.0 | 10.0 | 0.00 | 0.00 | 0.00 | 33 | 1026.0 |
| 20260508151033 | 55 | 226 | 5.0 | 10.0 | 0.00 | 0.00 | 0.00 | 32 | 1026.0 |
| 20260508150531 | 55 | 241 | 2.0 | 10.0 | 0.00 | 0.00 | 0.00 | 35 | 1025.9 |
| 20260508150043 | 55 | 267 | 5.0 | 11.0 | 0.00 | 0.00 | 0.00 | 29 | 1025.9 |
| 20260508145532 | 56 | 266 | 6.0 | 12.0 | 0.00 | 0.00 | 0.00 | 30 | 1025.9 |
| 20260508145030 | 56 | 315 | 5.0 | 12.0 | 0.00 | 0.00 | 0.00 | 29 | 1025.8 |
| 20260508144546 | 56 | 290 | 5.0 | 10.0 | 0.00 | 0.00 | 0.00 | 31 | 1025.8 |
| 20260508144031 | 56 | 262 | 4.0 | 10.0 | 0.00 | 0.00 | 0.00 | 27 | 1025.8 |
| 20260508143529 | 56 | 193 | 3.0 | 8.0 | 0.00 | 0.00 | 0.00 | 28 | 1025.8 |
| 20260508143037 | 56 | 222 | 4.0 | 8.0 | 0.00 | 0.00 | 0.00 | 32 | 1025.9 |
| 20260508142530 | 56 | 288 | 4.0 | 10.0 | 0.00 | 0.00 | 0.00 | 27 | 1025.9 |
| 20260508142029 | 56 | 250 | 6.0 | 12.0 | 0.00 | 0.00 | 0.00 | 26 | 1025.9 |
| 20260508141546 | 56 | 218 | 6.0 | 12.0 | 0.00 | 0.00 | 0.00 | 25 | 1025.9 |
| 20260508141032 | 56 | 259 | 6.0 | 11.0 | 0.00 | 0.00 | 0.00 | 28 | 1025.9 |
| 20260508140530 | 56 | 257 | 6.0 | 11.0 | 0.00 | 0.00 | 0.00 | 28 | 1025.8 |
| 20260508140043 | 56 | 287 | 6.0 | 11.0 | 0.00 | 0.00 | 0.00 | 25 | 1025.9 |
| 20260508135529 | 56 | 261 | 3.0 | 12.0 | 0.00 | 0.00 | 0.00 | 26 | 1025.9 |
| 20260508135030 | 56 | 274 | 4.0 | 12.0 | 0.00 | 0.00 | 0.00 | 24 | 1025.9 |
| 20260508134556 | 56 | 324 | 6.0 | 14.0 | 0.00 | 0.00 | 0.00 | 27 | 1026.0 |
| 20260508134030 | 56 | 261 | 6.0 | 14.0 | 0.00 | 0.00 | 0.00 | 30 | 1026.0 |
| 20260508133531 | 57 | 253 | 8.0 | 14.0 | 0.00 | 0.00 | 0.00 | 28 | 1026.0 |
| 20260508133057 | 56 | 4 | 6.0 | 11.0 | 0.00 | 0.00 | 0.00 | 25 | 1026.1 |
| 20260508132530 | 55 | 251 | 1.0 | 9.0 | 0.00 | 0.00 | 0.00 | 24 | 1026.1 |
| 20260508132032 | 56 | 302 | 5.0 | 10.0 | 0.00 | 0.00 | 0.00 | 23 | 1026.1 |
| 20260508131549 | 56 | 357 | 2.0 | 10.0 | 0.00 | 0.00 | 0.00 | 24 | 1026.1 |
| 20260508131031 | 56 | 292 | 5.0 | 13.0 | 0.00 | 0.00 | 0.00 | 24 | 1026.2 |
| 20260508130531 | 56 | 310 | 6.0 | 13.0 | 0.00 | 0.00 | 0.00 | 25 | 1026.2 |
| 20260508130037 | 56 | 275 | 6.0 | 13.0 | 0.00 | 0.00 | 0.00 | 25 | 1026.2 |
| 20260508125531 | 57 | 255 | 8.0 | 12.0 | 0.00 | 0.00 | 0.00 | 29 | 1026.2 |
| 20260508125031 | 56 | 272 | 7.0 | 12.0 | 0.00 | 0.00 | 0.00 | 28 | 1026.2 |
| 20260508124538 | 57 | 257 | 8.0 | 12.0 | 0.00 | 0.00 | 0.00 | 27 | 1026.2 |
| 20260508124033 | 56 | 264 | 5.0 | 12.0 | 0.00 | 0.00 | 0.00 | 28 | 1026.1 |
| 20260508123531 | 56 | 259 | 7.0 | 12.0 | 0.00 | 0.00 | 0.00 | 27 | 1026.2 |
| 20260508123048 | 56 | 288 | 7.0 | 14.0 | 0.00 | 0.00 | 0.00 | 29 | 1026.2 |
| 20260508122534 | 56 | 251 | 6.0 | 14.0 | 0.00 | 0.00 | 0.00 | 31 | 1026.3 |
| 20260508122033 | 57 | 273 | 8.0 | 14.0 | 0.00 | 0.00 | 0.00 | 27 | 1026.1 |
| 20260508121543 | 56 | 230 | 8.0 | 14.0 | 0.00 | 0.00 | 0.00 | 30 | 1026.2 |
| 20260508121035 | 57 | 270 | 9.0 | 14.0 | 0.00 | 0.00 | 0.00 | 27 | 1026.2 |
| 20260508120534 | 57 | 225 | 7.0 | 13.0 | 0.00 | 0.00 | 0.00 | 27 | 1026.1 |
| 20260508120049 | 57 | 259 | 8.0 | 13.0 | 0.00 | 0.00 | 0.00 | 28 | 1026.2 |
| 20260508115536 | 56 | 292 | 9.0 | 16.0 | 0.00 | 0.00 | 0.00 | 29 | 1026.2 |
| 20260508115032 | 57 | 282 | 5.0 | 16.0 | 0.00 | 0.00 | 0.00 | 29 | 1026.2 |
| 20260508114542 | 55 | 243 | 4.0 | 10.0 | 0.00 | 0.00 | 0.00 | 31 | 1026.2 |
| 20260508114031 | 54 | 319 | 2.0 | 16.0 | 0.00 | 0.00 | 0.00 | 30 | 1026.3 |
| 20260508113534 | 56 | 359 | 6.0 | 16.0 | 0.00 | 0.00 | 0.00 | 29 | 1026.3 |
| 20260508113042 | 56 | 282 | 3.0 | 11.0 | 0.00 | 0.00 | 0.00 | 30 | 1026.2 |
| 20260508112533 | 56 | 293 | 7.0 | 12.0 | 0.00 | 0.00 | 0.00 | 28 | 1026.3 |
| 20260508112034 | 57 | 252 | 6.0 | 12.0 | 0.00 | 0.00 | 0.00 | 30 | 1026.3 |
| 20260508111541 | 55 | 233 | 6.0 | 12.0 | 0.00 | 0.00 | 0.00 | 38 | 1026.3 |
| 20260508111033 | 57 | 256 | 7.0 | 13.0 | 0.00 | 0.00 | 0.00 | 34 | 1026.3 |
| 20260508110533 | 56 | 274 | 8.0 | 17.0 | 0.00 | 0.00 | 0.00 | 31 | 1026.3 |
| 20260508110047 | 57 | 243 | 8.0 | 17.0 | 0.00 | 0.00 | 0.00 | 31 | 1026.3 |
| 20260508105533 | 56 | 279 | 8.0 | 16.0 | 0.00 | 0.00 | 0.00 | 32 | 1026.4 |